Regional Weather Roundup
Issued by NWS

Home | Current Version | Previous Version | Graphics & Text | Print | Product List | Glossary Off
Versions: 1 2 3 4 5 6 7 8 9 10 11 12 13 14 15 16 17 18 19 20 21 22 23 24 25 26 27 28 29 30 31 32 33 34 35 36 37 38 39 40 41 42 43 44 45 46 47 48 49 50

000
ASUS43 KMPX 272201
RWRMN
WEATHER ROUNDUP FOR MINNESOTA
NATIONAL WEATHER SERVICE TWIN CITIES/CHANHASSEN MN
500 PM CDT WED MAY 27 2015


NOTE: "FAIR" INDICATES FEW OR NO CLOUDS BELOW 12,000 FEET WITH NO
SIGNIFICANT WEATHER AND/OR OBSTRUCTIONS TO VISIBILITY. N/A MEANS
CURRENT SKY AND/OR WEATHER CONDITIONS ARE NOT AVAILABLE.

MNZ060>063-068>070-272300-
   Twin Cities Metro

CITY           SKY/WX    TMP DP  RH WIND       PRES   REMARKS
TWIN CITIES    MOSUNNY   84  52  33 W10G20    29.96S
ST PAUL        SUNNY     83  54  36 W9        29.96S
CRYSTAL        SUNNY     84  52  33 NW10      29.95R
BLAINE         MOSUNNY   84  54  34 SW8       29.96R
LAKEVILLE      SUNNY     81  57  44 W9        29.98S
EDEN PRAIRIE   SUNNY     82  54  37 W10       29.96S
SOUTH ST PAUL  MOSUNNY   82  54  37 SW8       29.96S
LAKE ELMO      FAIR      81  57  44 SW10      29.97S
$$
MNZ001>005-007-008-013>017-022>024-027-028-272300-
   Northwest Minnesota

CITY           SKY/WX    TMP DP  RH WIND       PRES   REMARKS
BEMIDJI        SUNNY     78  51  39 NW10      29.97R
HALLOCK        SUNNY     72  45  37 N6        29.98S
ROSEAU         SUNNY     73  43  33 NE8       29.98R
WARROAD        SUNNY     66  52  59 E10       29.99S
THIEF RVR FALL SUNNY     75  50  41 N5        29.97F
CROOKSTON      SUNNY     77  48  36 N5        29.97S
FOSSTON        SUNNY     81  46  30 CALM      29.97S
DETROIT LAKES  SUNNY     79  46  31 NW8       29.99S
MOORHEAD       SUNNY     81  48  32 NW7       29.96F
PARK RAPIDS    SUNNY     83  46  27 NW13      29.96R
MAHNOMEN       FAIR      78  49  35 NW9       29.97S
$$
MNZ006-009>011-018-025>026-272300-
   North Central Minnesota

CITY           SKY/WX    TMP DP  RH WIND       PRES   REMARKS
BAUDETTE       SUNNY     71  46  40 N10       29.98R
FLAG ISLAND    SUNNY     66  46  48 NE7       29.98S
INTL FALLS     SUNNY     75  44  33 W15       29.95R
WASKISH        SUNNY     73  57  56 CALM      29.96S
BIG FORK       SUNNY    N/A N/A N/A W5        29.95R
LONGVILLE      SUNNY     81  46  30 NW5       29.96S
GRAND RAPIDS   SUNNY     79  48  34 W10       29.95S
CRANE LAKE     SUNNY     73  46  38 NW8       29.94R
COOK           MOSUNNY   79  48  34 NW10G18   29.93R
WALKER         FAIR      79  48  32 NW6       29.95S
$$
MNZ012-019>021-037-272300-
   Northeast Minnesota

CITY           SKY/WX    TMP DP  RH WIND       PRES   REMARKS
DULUTH         MOSUNNY   83  46  27 VRB7G20   29.92R
HIBBING        MOSUNNY   80  46  30 W14G22    29.92R
EVELETH        MOSUNNY   79  46  31 W16G23    29.93S
DULUTH HARBOR  MOSUNNY   81  54  39 NW5       29.88S
TWO HARBORS    MOSUNNY   79  52  38 W9G28     29.90R
SILVER BAY     MOSUNNY   82  45  26 W6        29.87R
GRAND MARAIS     N/A     73  45  36 NW12G23   29.86R
G MARAIS ARPRT MOSUNNY   66  45  45 SW8G20    29.93R
$$
MNZ029>031-032-039>041-046>048-054>057-064-272300-
   West Central Minnesota

CITY           SKY/WX    TMP DP  RH WIND       PRES   REMARKS
FERGUS FALLS   SUNNY     81  52  36 N6        29.95F
WHEATON        SUNNY     81  46  30 CALM      29.97S
MORRIS         SUNNY     84  48  28 NW9       29.96S
ALEXANDRIA     SUNNY     81  49  32 NW9       29.99S
ELBOW LAKE     FAIR      80  51  36 N7        29.97S
WADENA         SUNNY     81  50  34 W10       29.97S
GLENWOOD       SUNNY     82  50  32 W7        29.99S
APPLETON       SUNNY     84  45  24 N5        29.96S
BENSON         SUNNY     84  43  23 NW3       29.97S
ORTONVILLE     SUNNY     84  45  24 W5        29.97S
MADISON        MOSUNNY   82  48  30 NW7       29.97S
WILLMAR          N/A     84  48  28 NW5       29.99S
$$
MNZ033>034-036-042>043-049>051-058-059-272300-
   Central Minnesota

CITY           SKY/WX    TMP DP  RH WIND       PRES   REMARKS
ST CLOUD       SUNNY     82  53  36 NW7       29.95S
SAUK CENTRE    FAIR      81  49  32 NW9       29.97S
PAYNESVILLE    MOSUNNY   78  51  38 W6        29.98R
AITKIN         SUNNY     82  39  21 NW5       29.94S
PINE RIVER     MOSUNNY   81  52  36 NW6       29.98S
BRAINERD       MOSUNNY   80  47  31 W6        29.95S
STAPLES        SUNNY     82  45  26 W9        29.97R
LONG PRAIRIE   PTSUNNY   81  50  34 W6        29.98S
LITTLE FALLS   SUNNY     81  45  28 W8        29.96S
LITCHFIELD     SUNNY     84  48  28 NW6       29.97S
BUFFALO        SUNNY     83  50  31 W6        29.98R
MAPLE LAKE     SUNNY     83  53  35 W5        29.98R
$$
MNZ037-044-045-052-053-272300-
   East Central Minnesota

CITY           SKY/WX    TMP DP  RH WIND       PRES   REMARKS
PRINCETON      SUNNY     84  52  32 W6        29.96S
MORA           SUNNY     79  48  34 NW6       29.96S
CAMBRIDGE      SUNNY     84  61  45 W10       29.93S
RUSH CITY      MOSUNNY   81  56  42 W6        29.94S
MOOSE LAKE     SUNNY     81  55  41 W7        29.91S
HINCKLEY       FAIR      81  54  39 W8        29.94R
CLOQUET        MOSUNNY   82  37  20 W16G23    29.92S
MCGREGOR       SUNNY     81  46  30 W6        29.94S
$$
MNZ071>073-080-081-089-090-097-098-272300-
   Southwest Minnesota

CITY           SKY/WX    TMP DP  RH WIND       PRES   REMARKS
MONTEVIDEO     SUNNY     88  45  22 N6        29.98S
GRANITE FALLS  SUNNY     83  47  28 CALM      29.99S
CANBY          PTSUNNY   82  47  29 SW5       29.99S
MARSHALL       MOSUNNY   82  46  28 NW6       29.98S
REDWOOD FALLS  SUNNY     85  46  25 W6        29.97F
OLIVIA         MOSUNNY   81  45  28 NW6       29.97S
PIPESTONE      MOSUNNY   82  41  23 W2        30.02S
WINDOM         MOSUNNY   82  45  26 CALM      30.01S
WORTHINGTON    MOSUNNY   82  45  26 W6        30.01S
JACKSON        MOSUNNY   82  46  28 W7        30.01F
TRACY          MOSUNNY   84  46  26 NW7       30.00S
SLAYTON        MOSUNNY   83  40  21 W7        30.02S
$$
MNZ065>067-074>077-082>085-091>093-272300-
   South Central Minnesota

CITY           SKY/WX    TMP DP  RH WIND       PRES   REMARKS
MANKATO        SUNNY     82  54  36 W10       29.99S
NEW ULM        SUNNY     82  52  34 CALM      29.98F
ST JAMES       SUNNY     84  52  32 CALM      30.00S
FAIRMONT       SUNNY     84  46  26 NW10      30.00S
GLENCOE        MOSUNNY   84  55  36 W8        29.97S
FARIBAULT      MOSUNNY   81  57  44 SW7       29.99F
OWATONNA       SUNNY     81  54  39 W9        30.00S
WASECA         SUNNY     81  52  36 W8G16     30.01S
ALBERT LEA     MOSUNNY   82  52  34 W7        30.01S
$$
MNZ078>079-086>088-094>096-272300-
   Southeast Minnesota

CITY           SKY/WX    TMP DP  RH WIND       PRES   REMARKS
ROCHESTER      SUNNY     79  59  50 W9        30.02S
RED WING       SUNNY     82  54  36 W8        29.96S
STANTON        SUNNY     82  56  41 W8        29.97S
DODGE CENTER   SUNNY     81  55  41 W10G16    30.01S
WINONA         SUNNY     81  55  41 W6        29.98S
AUSTIN         SUNNY     79  55  44 SW9       30.01S
PRESTON        SUNNY     77  55  46 W9        30.03S
$$
ABBREVIATIONS USED IN REMARKS
   TC - TEMPERATURES IN CELSIUS
  WCI - WIND CHILL INDEX
   HX - HEAT INDEX
  VSB - VISIBILITY
$$


USA.gov is the U.S. government's official web portal to all federal, state and local government web resources and services.